This demonstration page uses our WeatherBlox Daily Observations layout. Learn more.

Left ArrowRight Arrow

39.01783, -85.05884

Hourly Observations for October 8, 2015

Temp ( °F °C ) Dew Point ( °F °C ) Humidity (%) Winds ( mph kmh ) Pressure ( in mb ) Visibility ( mi km ) Precip ( " mm )
12:52 am 00:52 Mostly Clear 65 18.3 56 13.3 73 73 E 3 6 30.09 1019 10 16 N/A
1:52 am 01:52 Mostly Cloudy 65 18.3 55 12.8 70 70 E 3 6 30.09 1019 10 16 N/A
2:52 am 02:52 Partly Cloudy 64 17.8 55 12.8 73 73 N N/A 30.08 1019 10 16 N/A
3:52 am 03:52 Partly Cloudy 62 16.7 55 12.8 78 78 E 3 6 30.07 1018 10 16 N/A
4:52 am 04:52 Mostly Cloudy 61 16.1 56 13.3 84 84 NNE 3 6 30.07 1018 9 14 N/A
5:52 am 05:52 Mostly Cloudy 60 15.6 56 13.3 86 86 N N/A 30.06 1018 9 14 N/A
6:52 am 06:52 Mostly Cloudy 59 15 55 12.8 87 87 SE 3 6 30.07 1018 9 14 N/A
7:52 am 07:52 Mostly Cloudy 61 16.1 56 13.3 84 84 ESE 3 6 30.07 1018 7 11 N/A
8:52 am 08:52 Mostly Cloudy 63 17.2 58 14.4 84 84 N N/A 30.09 1019 7 11 N/A
9:52 am 09:52 Mostly Cloudy 68 20 61 16.1 78 78 S 3 6 30.09 1019 10 16 N/A
10:52 am 10:52 Mostly Cloudy 73 22.8 59 15 62 62 SSW 10 17 30.09 1019 10 16 N/A
11:52 am 11:52 Mostly Cloudy 76 24.4 59 15 56 56 SSW 9 15 30.08 1019 10 16 N/A
12:52 pm 12:52 Mostly Cloudy 77 25 59 15 54 54 SSW 12 19 30.06 1018 10 16 N/A
1:52 pm 13:52 Mostly Cloudy 77 25 59 15 54 54 SSW 9 15 30.05 1018 10 16 N/A
2:52 pm 14:52 Mostly Cloudy 78 25.6 58 14.4 50 50 SSW 9 15 30.02 1017 10 16 N/A
3:52 pm 15:52 Cloudy 77 25 60 15.6 56 56 WSW 6 9 30.00 1016 10 16 N/A
4:52 pm 16:52 Cloudy 76 24.4 60 15.6 58 58 WSW 3 6 30.00 1016 10 16 N/A
5:52 pm 17:52 Mostly Cloudy 77 25 59 15 54 54 SSW 8 13 29.98 1015 10 16 N/A
6:52 pm 18:52 Mostly Cloudy 74 23.3 59 15 60 60 S 6 9 29.97 1015 10 16 N/A
7:52 pm 19:52 Mostly Cloudy 71 21.7 59 15 66 66 S 3 6 29.98 1015 10 16 N/A
8:52 pm 20:52 Mostly Clear 66 18.9 60 15.6 81 81 S 5 7 29.98 1015 10 16 N/A
9:52 pm 21:52 Partly Cloudy 68 20 59 15 73 73 SSW 6 9 29.97 1015 10 16 N/A
10:52 pm 22:52 Cloudy 68 20 59 15 73 73 SSW 5 7 29.97 1015 10 16 N/A
11:52 pm 23:52 Partly Cloudy 67 19.4 59 15 76 76 SSW 6 9 29.97 1015 10 16 N/A

Powered by AerisWeather